period_start,C,m1,H,J0,J1,J2,J3,J4,J5,JA,JB,JC,JD,JJ,JK,JN,#
2014-12-31 00:03:46,0.17,2.47,0.00,23.85,27.62,30.25,4.85,27.31,1020.53,2029.00,2504.69,2656.24,2891.16,350.68,348.74,12.26,0000 0000 0000 0000 000000
2014-12-31 00:08:47,0.19,2.47,0.00,23.83,27.62,30.28,4.77,27.20,1020.53,2029.00,2503.06,2654.96,2889.78,350.30,348.11,12.29,0000 0000 0000 0000 000000
2014-12-31 00:13:48,0.19,2.48,0.00,23.82,27.62,30.25,4.82,27.21,1020.53,2028.99,2501.33,2653.69,2888.38,350.01,347.94,12.32,0000 0000 0000 0000 000000
2014-12-31 00:18:50,0.17,2.48,0.00,23.84,27.62,30.25,4.76,27.13,1020.53,2028.99,2499.83,2652.57,2887.15,350.43,348.59,12.35,0000 0000 0000 0000 000000
2014-12-31 00:23:51,0.16,2.49,0.00,23.85,27.63,30.24,4.79,27.37,1020.52,2028.98,2498.33,2651.42,2885.90,350.16,348.20,12.38,0000 0000 0000 0000 000000
2014-12-31 00:28:52,0.16,2.49,0.00,23.84,27.63,30.23,4.79,27.19,1020.52,2028.98,2496.81,2650.37,2884.81,349.75,347.83,12.40,0000 0000 0000 0000 000000
2014-12-31 00:33:54,0.15,2.50,0.00,23.83,27.64,30.27,4.75,27.18,1020.52,2028.99,2495.48,2649.31,2883.74,349.84,347.86,12.43,0000 0000 0000 0000 000000
2014-12-31 00:38:54,0.16,2.50,0.00,23.83,27.64,30.27,4.78,27.22,1020.52,2028.99,2494.00,2648.24,2882.60,350.04,348.03,12.46,0000 0000 0000 0000 000000
2014-12-31 00:43:56,0.16,2.51,0.00,23.82,27.64,30.25,4.81,27.23,1020.53,2028.99,2492.56,2647.11,2881.26,350.62,348.95,12.49,0000 0000 0000 0000 000000
2014-12-31 00:48:57,0.16,2.51,0.00,23.84,27.64,30.25,4.72,27.43,1020.53,2028.98,2490.94,2646.02,2880.27,349.62,347.65,12.52,0000 0000 0000 0000 000000
2014-12-31 00:53:58,0.16,2.52,0.00,23.80,27.64,30.26,4.84,27.33,1020.53,2028.98,2489.40,2644.93,2879.18,350.29,348.27,12.55,0000 0000 0000 0000 000000
2014-12-31 00:58:59,0.15,2.52,0.00,23.81,27.64,30.28,4.79,27.16,1020.52,2028.97,2487.87,2643.88,2878.18,349.79,347.86,12.58,0000 0000 0000 0000 000000
2014-12-31 01:04:00,0.17,2.53,0.00,23.83,27.64,30.26,4.79,27.25,1020.52,2028.99,2486.50,2642.84,2877.17,350.10,348.33,12.61,0000 0000 0000 0000 000000
2014-12-31 01:09:02,0.17,2.53,0.00,23.82,27.64,30.26,4.76,27.19,1020.52,2028.99,2485.02,2641.74,2875.91,349.84,347.87,12.64,0000 0000 0000 0000 000000
2014-12-31 01:14:03,0.17,2.54,0.00,23.83,27.64,30.24,4.73,27.27,1020.52,2028.99,2483.59,2640.67,2874.72,349.54,347.52,12.67,0000 0000 0000 0000 000000
2014-12-31 01:19:04,0.12,2.54,0.00,23.81,27.65,30.22,4.82,27.31,1020.51,2028.99,2482.15,2639.75,2873.86,349.73,347.67,12.70,0000 0000 0000 0000 000000
2014-12-31 01:24:06,0.17,2.55,0.00,23.83,27.65,30.20,4.83,27.39,1020.47,2028.98,2480.76,2638.73,2872.77,349.94,348.12,12.73,0000 0000 0000 0000 000000
2014-12-31 01:29:07,0.16,2.55,0.00,23.83,27.65,30.22,4.78,27.13,1020.46,2028.98,2479.33,2637.66,2871.59,350.41,348.31,12.76,0000 0000 0000 0000 000000
2014-12-31 01:34:09,0.17,2.56,0.00,23.86,27.65,30.21,4.81,27.28,1020.50,2028.97,2477.82,2636.60,2870.44,350.41,348.57,12.79,0000 0000 0000 0000 000000
2014-12-31 01:39:10,0.15,2.56,0.00,23.86,27.65,30.22,4.84,27.51,1020.48,2028.97,2476.47,2635.58,2869.45,350.20,347.86,12.81,0000 0000 0000 0000 000000
2014-12-31 01:44:12,0.14,2.57,0.00,23.85,27.65,30.20,4.74,27.18,1020.44,2028.96,2475.07,2634.63,2868.41,349.93,347.93,12.84,0000 0000 0000 0000 000000
2014-12-31 01:49:13,0.16,2.57,0.00,23.83,27.66,30.24,4.76,27.14,1020.41,2028.98,2473.78,2633.66,2867.36,350.22,348.31,12.87,0000 0000 0000 0000 000000
2014-12-31 01:54:14,0.15,2.58,0.00,23.84,27.67,30.25,4.77,27.22,1020.49,2028.98,2472.33,2632.56,2866.15,349.58,347.72,12.90,0000 0000 0000 0000 000000
2014-12-31 01:59:15,0.16,2.58,0.00,23.83,27.67,30.25,4.80,27.43,1020.43,2028.97,2470.82,2631.55,2865.03,349.84,347.72,12.93,0000 0000 0000 0000 000000
2014-12-31 02:04:16,0.15,2.59,0.00,23.81,27.67,30.23,4.68,27.38,1020.27,2028.95,2469.43,2630.42,2863.92,349.56,347.48,12.96,0000 0000 0000 0000 000000
2014-12-31 02:09:17,0.15,2.59,0.00,23.83,27.69,30.27,4.75,27.20,1020.26,2028.95,2468.01,2629.46,2862.81,349.88,347.82,12.99,0000 0000 0000 0000 000000
2014-12-31 02:14:18,0.15,2.59,0.00,23.81,27.70,30.27,4.77,27.22,1020.18,2028.96,2466.70,2628.49,2861.75,349.99,347.79,13.02,0000 0000 0000 0000 000000
2014-12-31 02:19:19,0.15,2.60,0.00,23.79,27.70,30.28,4.74,27.23,1020.30,2028.95,2465.43,2627.47,2860.75,349.66,347.85,13.05,0000 0000 0000 0000 000000
2014-12-31 02:24:21,0.12,2.60,0.00,23.78,27.70,30.29,4.81,27.23,1020.27,2028.91,2464.14,2626.53,2859.75,349.63,347.78,13.08,0000 0000 0000 0000 000000
2014-12-31 02:29:22,0.14,2.61,0.00,23.81,27.71,30.27,4.72,27.23,1020.37,2028.86,2462.83,2625.59,2858.72,349.72,347.46,13.11,0000 0000 0000 0000 000000
2014-12-31 02:34:23,0.15,2.61,0.00,23.81,27.72,30.30,4.80,27.39,1020.24,2028.74,2461.43,2624.60,2857.64,350.29,348.17,13.14,0000 0000 0000 0000 000000
2014-12-31 02:39:24,0.12,2.61,0.00,23.81,27.72,30.31,4.85,27.45,1020.30,2028.64,2459.96,2623.54,2856.57,349.96,348.23,13.17,0000 0000 0000 0000 000000
2014-12-31 02:44:25,0.14,2.62,0.00,23.76,27.72,30.32,4.83,27.39,1020.37,2028.69,2458.74,2622.85,2855.68,349.65,347.42,13.20,0000 0000 0000 0000 000000
2014-12-31 02:49:27,0.12,2.62,0.00,23.75,27.72,30.32,4.74,27.38,1020.45,2028.65,2457.47,2621.99,2854.76,349.45,347.52,13.22,0000 0000 0000 0000 000000
2014-12-31 02:54:28,0.10,2.63,0.00,23.77,27.73,30.33,4.80,27.29,1020.48,2028.56,2456.44,2621.11,2853.75,350.01,348.17,13.25,0000 0000 0000 0000 000000
2014-12-31 02:59:29,0.14,2.63,0.00,23.77,27.74,30.33,4.83,27.27,1020.45,2028.46,2455.26,2620.18,2852.91,350.41,348.69,13.28,0000 0000 0000 0000 000000
2014-12-31 03:04:30,0.12,2.63,0.00,23.78,27.75,30.32,4.82,27.51,1020.39,2028.51,2454.20,2619.48,2851.96,350.85,348.81,13.31,0000 0000 0000 0000 000000
2014-12-31 03:09:32,0.06,2.64,0.00,23.75,27.75,30.33,4.82,27.37,1020.47,2028.24,2453.09,2618.69,2851.03,349.71,347.84,13.34,0000 0000 0000 0000 000000
2014-12-31 03:14:33,0.11,2.64,0.00,23.76,27.75,30.34,4.74,27.34,1020.52,2028.12,2451.94,2617.76,2850.13,349.55,347.92,13.37,0000 0000 0000 0000 000000
2014-12-31 03:19:35,0.10,2.64,0.00,23.75,27.75,30.34,4.80,27.27,1020.51,2028.09,2450.83,2616.93,2849.29,350.04,347.96,13.40,0000 0000 0000 0000 000000
2014-12-31 03:24:36,0.15,2.65,0.00,23.71,27.75,30.34,4.79,27.29,1020.52,2028.13,2449.77,2616.08,2848.32,350.31,348.49,13.43,0000 0000 0000 0000 000000
2014-12-31 03:29:38,0.13,2.65,0.00,23.76,27.75,30.34,4.83,27.33,1020.52,2028.09,2448.66,2615.24,2847.46,350.30,348.52,13.46,0000 0000 0000 0000 000000
2014-12-31 03:34:39,0.13,2.65,0.00,23.76,27.75,30.35,4.83,27.36,1020.52,2028.04,2447.46,2614.38,2846.48,350.48,348.78,13.49,0000 0000 0000 0000 000000
2014-12-31 03:39:40,0.13,2.66,0.00,23.79,27.75,30.36,4.77,27.41,1020.53,2028.02,2446.30,2613.48,2845.52,349.75,347.55,13.52,0000 0000 0000 0000 000000
2014-12-31 03:44:41,0.13,2.66,0.00,23.80,27.75,30.36,4.81,27.41,1020.54,2028.02,2444.96,2612.62,2844.52,349.68,347.75,13.55,0000 0000 0000 0000 000000
2014-12-31 03:49:43,0.13,2.67,0.00,23.75,27.75,30.35,4.76,27.23,1020.53,2028.03,2443.81,2611.77,2843.58,349.63,347.98,13.58,0000 0000 0000 0000 000000
2014-12-31 03:54:44,0.12,2.67,0.00,23.77,27.76,30.34,4.78,27.32,1020.52,2028.04,2442.56,2610.93,2842.75,349.72,347.58,13.61,0000 0000 0000 0000 000000
2014-12-31 03:59:45,0.12,2.67,0.00,23.74,27.77,30.33,4.75,27.20,1020.53,2028.04,2441.43,2610.04,2841.86,350.16,348.19,13.63,0000 0000 0000 0000 000000
2014-12-31 04:04:46,0.13,2.68,0.00,23.75,27.77,30.34,4.86,27.51,1020.54,2028.02,2440.27,2609.16,2840.94,350.30,348.35,13.66,0000 0000 0000 0000 000000
2014-12-31 04:09:48,0.14,2.68,0.00,23.75,27.77,30.33,4.76,27.41,1020.54,2028.03,2438.98,2608.31,2840.00,349.88,347.97,13.69,0000 0000 0000 0000 000000
2014-12-31 04:14:49,0.21,2.69,0.00,23.72,27.77,30.34,4.76,27.36,1020.53,2028.03,2437.56,2607.16,2838.61,350.14,348.20,13.72,0000 0000 0000 0000 000000
2014-12-31 04:19:50,0.27,2.69,0.00,23.76,27.77,30.35,4.81,27.33,1020.53,2028.01,2435.23,2605.44,2836.66,350.11,348.06,13.75,0000 0000 0000 0000 000000
2014-12-31 04:24:51,0.26,2.70,0.00,23.76,27.77,30.33,4.79,27.33,1020.52,2028.00,2432.83,2603.74,2834.92,350.16,348.29,13.78,0000 0000 0000 0000 000000
2014-12-31 04:29:52,0.23,2.71,0.00,23.78,27.77,30.35,4.80,27.28,1020.53,2028.00,2430.61,2602.21,2833.38,350.08,348.19,13.81,0000 0000 0000 0000 000000
2014-12-31 04:34:54,0.24,2.72,0.00,23.78,27.77,30.36,4.79,27.24,1020.52,2028.00,2428.58,2600.71,2831.71,350.01,348.11,13.84,0000 0000 0000 0000 000000
2014-12-31 04:39:55,0.19,2.72,0.00,23.73,27.77,30.36,4.73,27.43,1020.53,2028.01,2426.87,2599.52,2830.43,350.14,348.35,13.87,0000 0000 0000 0000 000000
2014-12-31 04:44:56,0.17,2.73,0.00,23.72,27.76,30.36,4.78,27.39,1020.52,2028.00,2425.25,2598.31,2829.12,349.65,347.75,13.90,0000 0000 0000 0000 000000
2014-12-31 04:49:57,0.18,2.73,0.00,23.74,27.76,30.34,4.76,27.39,1020.52,2028.00,2423.51,2597.17,2827.92,349.84,347.87,13.93,0000 0000 0000 0000 000000
2014-12-31 04:54:59,0.16,2.74,0.00,23.77,27.75,30.34,4.83,27.46,1020.52,2028.00,2421.85,2596.05,2826.87,350.26,348.28,13.96,0000 0000 0000 0000 000000
2014-12-31 05:00:00,0.15,2.74,0.00,23.74,27.75,30.36,4.83,27.43,1020.52,2028.01,2420.51,2595.11,2825.94,349.81,348.36,13.99,0000 0000 0000 0000 000000
2014-12-31 05:05:01,0.15,2.75,0.00,23.72,27.75,30.34,4.77,27.27,1020.52,2028.01,2419.27,2594.16,2824.89,349.72,347.90,14.02,0000 0000 0000 0000 000000
2014-12-31 05:10:03,0.14,2.75,0.00,23.74,27.75,30.36,4.78,27.42,1020.52,2028.01,2418.06,2593.26,2823.92,350.13,348.37,14.04,0000 0000 0000 0000 000000
2014-12-31 05:15:04,0.14,2.76,0.00,23.73,27.75,30.37,4.73,27.26,1020.52,2028.01,2416.85,2592.36,2823.00,349.78,348.30,14.07,0000 0000 0000 0000 000000
2014-12-31 05:20:05,0.14,2.76,0.00,23.77,27.75,30.33,4.77,27.32,1020.52,2028.01,2415.73,2591.56,2822.06,349.53,347.67,14.10,0000 0000 0000 0000 000000
2014-12-31 05:25:06,0.13,2.76,0.00,23.75,27.75,30.30,4.82,27.40,1020.52,2028.00,2414.55,2590.72,2821.12,350.60,348.70,14.13,0000 0000 0000 0000 000000
2014-12-31 05:30:07,0.13,2.77,0.00,23.72,27.75,30.34,4.74,27.40,1020.52,2028.00,2413.30,2589.80,2820.26,349.99,348.13,14.16,0000 0000 0000 0000 000000
2014-12-31 05:35:08,0.23,2.77,0.00,23.74,27.76,30.37,4.70,27.27,1020.52,2028.02,2411.47,2588.56,2818.92,349.73,347.82,14.19,0000 0000 0000 0000 000000
2014-12-31 05:40:10,0.26,2.78,0.00,23.74,27.76,30.35,4.76,27.20,1020.52,2028.00,2409.16,2586.95,2817.24,350.21,348.23,14.22,0000 0000 0000 0000 000000
2014-12-31 05:45:11,0.25,2.79,0.00,23.73,27.76,30.33,4.77,27.26,1020.52,2028.00,2406.80,2585.32,2815.57,350.11,348.07,14.25,0000 0000 0000 0000 000000
2014-12-31 05:50:12,0.26,2.80,0.00,23.75,27.77,30.36,4.78,27.43,1020.52,2028.01,2404.48,2583.74,2813.91,349.81,347.90,14.28,0000 0000 0000 0000 000000
2014-12-31 05:55:13,0.22,2.81,0.00,23.73,27.77,30.33,4.82,27.38,1020.52,2028.01,2402.38,2582.30,2812.35,350.20,348.45,14.31,0000 0000 0000 0000 000000
2014-12-31 06:00:14,0.20,2.81,0.00,23.73,27.77,30.35,4.78,27.37,1020.52,2028.01,2400.58,2580.99,2810.98,349.73,347.92,14.34,0000 0000 0000 0000 000000
2014-12-31 06:05:16,0.18,2.82,0.00,23.72,27.77,30.35,4.79,27.44,1020.52,2028.00,2398.86,2579.84,2809.83,350.38,348.34,14.37,0000 0000 0000 0000 000000
2014-12-31 06:10:17,0.18,2.82,0.00,23.71,27.77,30.34,4.78,27.79,1020.52,2028.00,2397.44,2578.74,2808.60,349.52,347.70,14.40,0000 0000 0000 0000 000000
2014-12-31 06:15:18,0.22,2.83,0.00,23.74,27.77,30.35,4.81,27.45,1020.52,2028.00,2395.66,2577.43,2806.98,349.70,348.05,14.43,0000 0000 0000 0000 000000
2014-12-31 06:20:20,0.24,2.83,0.00,23.73,27.77,30.36,4.83,27.39,1020.53,2028.00,2393.49,2575.91,2805.48,350.31,348.34,14.45,0000 0000 0000 0000 000000
2014-12-31 06:25:21,0.22,2.84,0.00,23.72,27.77,30.35,4.71,27.21,1020.52,2028.00,2391.57,2574.57,2803.97,349.32,347.52,14.48,0000 0000 0000 0000 000000
2014-12-31 06:30:22,0.20,2.85,0.00,23.70,27.77,30.35,4.83,27.52,1020.52,2028.00,2389.59,2573.30,2802.68,350.78,348.89,14.51,0000 0000 0000 0000 000000
2014-12-31 06:35:23,0.18,2.85,0.00,23.71,27.77,30.37,4.80,27.44,1020.52,2028.00,2387.88,2572.14,2801.49,350.10,348.05,14.54,0000 0000 0000 0000 000000
2014-12-31 06:40:25,0.16,2.86,0.00,23.72,27.77,30.37,4.80,27.42,1020.52,2028.00,2386.36,2571.06,2800.34,349.96,348.09,14.57,0000 0000 0000 0000 000000
2014-12-31 06:45:26,0.14,2.86,0.00,23.73,27.77,30.36,4.83,27.48,1020.52,2028.00,2385.09,2570.06,2799.39,350.17,348.28,14.60,0000 0000 0000 0000 000000
2014-12-31 06:50:28,0.17,2.87,0.00,23.70,27.78,30.37,4.79,27.46,1020.52,2028.00,2383.73,2569.07,2798.14,350.59,348.62,14.63,0000 0000 0000 0000 000000
2014-12-31 06:55:29,0.16,2.87,0.00,23.68,27.79,30.38,4.76,27.30,1020.52,2028.00,2382.36,2568.00,2797.02,349.87,348.03,14.66,0000 0000 0000 0000 000000
2014-12-31 07:00:30,0.16,2.88,0.00,23.71,27.79,30.37,4.76,27.33,1020.52,2028.00,2380.82,2566.97,2795.93,350.21,348.29,14.69,0000 0000 0000 0000 000000
2014-12-31 07:05:32,0.16,2.88,0.00,23.73,27.80,30.37,4.85,27.47,1020.52,2028.00,2379.53,2566.03,2794.93,350.28,348.45,14.72,0000 0000 0000 0000 000000
2014-12-31 07:10:33,0.14,2.89,0.00,23.70,27.80,30.37,4.77,27.49,1020.52,2028.00,2378.29,2565.11,2793.98,349.72,347.75,14.75,0000 0000 0000 0000 000000
2014-12-31 07:15:34,0.17,2.89,0.00,23.70,27.80,30.37,4.83,27.52,1020.52,2028.00,2376.91,2564.15,2792.96,350.30,348.79,14.78,0000 0000 0000 0000 000000
2014-12-31 07:20:35,0.16,2.90,0.00,23.71,27.80,30.37,4.75,27.43,1020.52,2028.00,2375.56,2563.14,2791.95,349.80,348.41,14.81,0000 0000 0000 0000 000000
2014-12-31 07:25:36,0.14,2.90,0.00,23.70,27.80,30.38,4.78,27.34,1020.52,2028.00,2374.36,2562.26,2790.99,349.63,347.75,14.84,0000 0000 0000 0000 000000
2014-12-31 07:30:37,0.14,2.90,0.00,23.74,27.80,30.38,4.78,27.23,1020.52,2028.00,2373.19,2561.39,2790.05,349.97,347.98,14.86,0000 0000 0000 0000 000000
2014-12-31 07:35:38,0.14,2.91,0.00,23.67,27.80,30.39,4.80,27.24,1020.53,2028.00,2372.05,2560.53,2789.12,350.05,348.20,14.89,0000 0000 0000 0000 000000
2014-12-31 07:40:40,0.16,2.91,0.00,23.70,27.80,30.40,4.83,27.53,1020.53,2027.99,2370.78,2559.54,2788.14,350.19,348.28,14.92,0000 0000 0000 0000 000000
2014-12-31 07:45:41,0.09,2.92,0.00,23.73,27.80,30.37,4.81,27.52,1020.54,2027.99,2369.71,2558.98,2787.18,349.96,348.20,14.95,0000 0000 0000 0000 000000
2014-12-31 07:50:42,0.14,2.92,0.00,23.73,27.80,30.37,4.82,27.41,1020.53,2027.99,2368.58,2558.14,2786.38,350.08,348.17,14.98,0000 0000 0000 0000 000000
2014-12-31 07:55:43,0.14,2.92,0.00,23.73,27.80,30.37,4.78,27.52,1020.52,2027.99,2367.29,2557.29,2785.56,349.66,347.74,15.01,0000 0000 0000 0000 000000
2014-12-31 08:00:45,0.14,2.93,0.00,23.70,27.80,30.37,4.74,27.44,1020.53,2027.99,2366.36,2556.38,2784.57,350.40,348.64,15.04,0000 0000 0000 0000 000000
2014-12-31 08:05:46,0.12,2.93,0.00,23.70,27.80,30.38,4.77,27.44,1020.53,2027.99,2365.15,2555.60,2783.74,349.51,347.97,15.07,0000 0000 0000 0000 000000
2014-12-31 08:10:47,0.14,2.94,0.00,23.73,27.80,30.39,4.83,27.57,1020.54,2027.99,2364.05,2554.68,2782.67,350.68,348.84,15.10,0000 0000 0000 0000 000000
2014-12-31 08:15:49,0.11,2.94,0.00,23.73,27.80,30.38,4.80,27.44,1020.54,2027.99,2362.89,2553.83,2781.78,350.11,348.47,15.13,0000 0000 0000 0000 000000
2014-12-31 08:20:50,0.17,2.95,0.00,23.71,27.80,30.38,4.75,27.46,1020.56,2027.99,2361.70,2552.88,2780.75,349.88,347.87,15.16,0000 0000 0000 0000 000000
2014-12-31 08:25:51,0.12,2.95,0.00,23.72,27.80,30.40,4.87,27.45,1020.57,2027.99,2360.67,2552.03,2779.83,350.20,348.48,15.19,0000 0000 0000 0000 000000
2014-12-31 08:30:52,0.16,2.95,0.00,23.72,27.80,30.40,4.73,27.33,1020.65,2027.99,2359.46,2551.16,2778.82,349.74,348.02,15.22,0000 0000 0000 0000 000000
2014-12-31 08:35:53,0.14,2.96,0.00,23.68,27.80,30.41,4.80,27.43,1020.56,2027.99,2358.24,2550.14,2777.81,349.88,347.94,15.25,0000 0000 0000 0000 000000
2014-12-31 08:40:55,0.16,2.96,0.00,23.69,27.80,30.39,4.81,27.38,1020.55,2027.98,2356.93,2549.22,2776.81,350.37,348.50,15.27,0000 0000 0000 0000 000000
2014-12-31 08:45:56,0.14,2.97,0.00,23.69,27.80,30.41,4.92,27.38,1020.55,2027.99,2355.72,2548.35,2775.97,350.41,348.69,15.30,0000 0000 0000 0000 000000
2014-12-31 08:50:58,0.14,2.97,0.00,23.72,27.80,30.39,4.75,27.45,1020.54,2027.99,2354.67,2547.50,2774.99,349.40,347.65,15.33,0000 0000 0000 0000 000000
2014-12-31 08:55:59,0.16,2.97,0.00,23.73,27.81,30.38,4.82,27.46,1020.53,2027.99,2353.42,2546.49,2773.94,349.65,347.69,15.36,0000 0000 0000 0000 000000
2014-12-31 09:01:00,0.15,2.98,0.00,23.70,27.81,30.40,4.79,27.53,1020.52,2027.99,2352.14,2545.50,2772.87,350.31,348.40,15.39,0000 0000 0000 0000 000000
2014-12-31 09:06:02,0.16,2.98,0.00,23.72,27.81,30.40,4.71,27.43,1020.53,2027.99,2350.86,2544.56,2771.83,349.69,347.76,15.42,0000 0000 0000 0000 000000
2014-12-31 09:11:03,0.16,2.99,0.00,23.70,27.82,30.39,4.74,27.40,1020.54,2027.99,2349.59,2543.60,2770.75,349.54,348.01,15.45,0000 0000 0000 0000 000000
2014-12-31 09:16:04,0.15,2.99,0.00,23.70,27.82,30.41,4.71,27.38,1020.53,2027.99,2348.39,2542.62,2769.70,349.35,347.73,15.48,0000 0000 0000 0000 000000
2014-12-31 09:21:05,0.14,3.00,0.00,23.69,27.82,30.40,4.77,27.41,1020.53,2027.99,2347.21,2541.68,2768.71,349.90,347.96,15.51,0000 0000 0000 0000 000000
2014-12-31 09:26:06,0.14,3.00,0.00,23.71,27.82,30.39,4.80,27.47,1020.54,2027.99,2346.06,2540.73,2767.70,350.36,348.55,15.54,0000 0000 0000 0000 000000
2014-12-31 09:31:08,0.13,3.01,0.00,23.73,27.82,30.42,4.71,27.32,1020.55,2027.99,2344.97,2539.88,2766.69,349.29,347.25,15.57,0000 0000 0000 0000 000000
2014-12-31 09:36:09,0.16,3.01,0.00,23.69,27.82,30.38,4.83,27.58,1020.53,2027.99,2343.71,2538.93,2765.73,350.27,348.54,15.60,0000 0000 0000 0000 000000
2014-12-31 09:41:10,0.15,3.02,0.00,23.68,27.82,30.41,4.78,27.58,1020.56,2027.99,2342.47,2537.99,2764.68,350.16,348.39,15.63,0000 0000 0000 0000 000000
2014-12-31 09:46:12,0.12,3.02,0.00,23.70,27.82,30.41,4.81,27.29,1020.62,2027.99,2341.48,2537.09,2763.79,349.98,348.21,15.66,0000 0000 0000 0000 000000
2014-12-31 09:51:13,0.13,3.03,0.00,23.70,27.82,30.41,4.82,27.52,1020.88,2027.98,2340.37,2536.24,2762.88,350.13,348.41,15.68,0000 0000 0000 0000 000000
2014-12-31 09:56:14,0.14,3.03,0.00,23.72,27.82,30.40,4.81,27.37,1020.93,2027.98,2339.21,2535.44,2761.97,349.99,348.44,15.71,0000 0000 0000 0000 000000
2014-12-31 10:01:15,0.14,3.03,0.00,23.70,27.82,30.40,4.80,27.38,1020.96,2027.99,2338.11,2534.56,2761.04,349.98,348.21,15.74,0000 0000 0000 0000 000000
2014-12-31 10:06:16,0.11,3.04,0.00,23.71,27.82,30.40,4.75,27.32,1020.95,2027.99,2337.02,2533.81,2760.09,349.56,347.90,15.77,0000 0000 0000 0000 000000
2014-12-31 10:11:18,0.14,3.04,0.00,23.73,27.82,30.41,4.82,27.45,1020.93,2027.99,2335.89,2532.90,2759.18,350.34,348.51,15.80,0000 0000 0000 0000 000000
2014-12-31 10:16:19,0.14,3.05,0.00,23.73,27.82,30.40,4.76,27.33,1020.77,2027.98,2334.72,2532.04,2758.21,349.58,347.62,15.83,0000 0000 0000 0000 000000
2014-12-31 10:21:21,0.16,3.05,0.00,23.72,27.82,30.41,4.78,27.27,1020.60,2027.99,2333.44,2531.07,2757.31,350.19,348.56,15.86,0000 0000 0000 0000 000000
2014-12-31 10:26:22,0.17,3.06,0.00,23.68,27.82,30.41,4.84,27.60,1020.54,2027.99,2332.04,2529.97,2756.10,350.07,348.30,15.89,0000 0000 0000 0000 000000
2014-12-31 10:31:24,0.20,3.06,0.00,23.67,27.82,30.42,4.83,27.57,1020.60,2027.98,2330.62,2528.83,2754.84,350.11,348.39,15.92,0000 0000 0000 0000 000000
2014-12-31 10:36:25,0.16,3.07,0.00,23.70,27.82,30.43,4.83,27.48,1020.75,2027.99,2329.24,2527.83,2753.70,349.68,348.19,15.95,0000 0000 0000 0000 000000
2014-12-31 10:41:26,0.21,3.07,0.00,23.70,27.82,30.42,4.77,27.43,1020.96,2027.97,2327.74,2526.57,2752.48,349.63,347.89,15.98,0000 0000 0000 0000 000000
2014-12-31 10:46:28,0.16,3.08,0.00,23.73,27.82,30.43,4.79,27.57,1020.99,2027.99,2326.47,2525.56,2751.46,349.94,348.27,16.01,0000 0000 0000 0000 000000
2014-12-31 10:51:29,0.15,3.08,0.00,23.71,27.82,30.41,4.79,27.42,1021.00,2027.99,2325.16,2524.53,2750.48,350.21,348.69,16.04,0000 0000 0000 0000 000000
2014-12-31 10:56:30,0.16,3.08,0.00,23.72,27.82,30.40,4.83,27.45,1021.01,2027.99,2323.83,2523.59,2749.51,350.46,349.00,16.07,0000 0000 0000 0000 000000
2014-12-31 11:01:31,0.17,3.09,0.00,23.71,27.82,30.38,4.74,27.38,1021.01,2027.99,2322.56,2522.58,2748.43,349.39,347.74,16.09,0000 0000 0000 0000 000000
2014-12-31 11:06:33,0.15,3.10,0.00,23.70,27.81,30.42,4.81,27.33,1021.01,2027.99,2321.30,2521.58,2747.29,350.14,348.41,16.12,0000 0000 0000 0000 000000
2014-12-31 11:11:34,0.15,3.10,0.00,23.72,27.80,30.41,4.91,27.75,1021.01,2027.99,2320.14,2520.59,2746.21,350.67,348.69,16.15,0000 0000 0000 0000 000000
2014-12-31 11:16:35,0.16,3.10,0.00,23.72,27.80,30.41,4.82,27.43,1021.00,2027.99,2318.86,2519.63,2745.09,350.42,348.82,16.18,0000 0000 0000 0000 000000
2014-12-31 11:21:37,0.16,3.11,0.00,23.69,27.80,30.39,4.81,27.51,1020.99,2027.99,2317.66,2518.60,2744.02,350.07,348.53,16.21,0000 0000 0000 0000 000000
2014-12-31 11:26:38,0.18,3.11,0.00,23.70,27.80,30.40,4.73,27.54,1021.01,2027.99,2316.14,2517.50,2742.79,349.93,348.36,16.24,0000 0000 0000 0000 000000
2014-12-31 11:31:39,0.15,3.12,0.00,23.70,27.80,30.37,4.72,27.49,1021.01,2027.99,2314.94,2516.41,2741.67,349.75,347.96,16.27,0000 0000 0000 0000 000000
2014-12-31 11:36:40,0.18,3.12,0.00,23.73,27.80,30.37,4.80,27.50,1021.01,2027.99,2313.63,2515.44,2740.59,349.61,348.04,16.30,0000 0000 0000 0000 000000
2014-12-31 11:41:42,0.16,3.13,0.00,23.73,27.80,30.40,4.80,27.46,1021.00,2027.98,2312.28,2514.30,2739.39,349.48,347.87,16.33,0000 0000 0000 0000 000000
2014-12-31 11:46:43,0.16,3.13,0.00,23.71,27.80,30.37,4.70,27.43,1020.86,2027.98,2310.90,2513.30,2738.35,349.05,347.48,16.36,0000 0000 0000 0000 000000
2014-12-31 11:51:44,0.18,3.14,0.00,23.67,27.80,30.37,4.83,27.63,1020.91,2027.99,2309.55,2512.25,2737.15,349.41,347.92,16.39,0000 0000 0000 0000 000000
2014-12-31 11:56:45,0.16,3.15,0.00,23.71,27.80,30.40,4.80,27.70,1020.87,2027.99,2308.27,2511.20,2735.98,350.19,348.36,16.42,0000 0000 0000 0000 000000
2014-12-31 12:01:47,0.19,3.15,0.00,23.74,27.80,30.39,4.74,27.70,1020.79,2027.99,2306.82,2510.03,2734.72,349.83,347.91,16.45,0000 0000 0000 0000 000000
2014-12-31 12:06:48,0.18,3.16,0.00,23.76,27.80,30.39,4.78,27.43,1020.91,2027.99,2305.48,2508.93,2733.59,350.14,348.20,16.48,0000 0000 0000 0000 000000
2014-12-31 12:11:49,0.18,3.16,0.00,23.69,27.80,30.40,4.74,27.54,1020.84,2027.99,2304.04,2507.81,2732.36,349.87,348.30,16.50,0000 0000 0000 0000 000000
2014-12-31 12:16:51,0.19,3.17,0.00,23.72,27.80,30.40,4.75,27.39,1020.64,2027.99,2302.74,2506.70,2731.23,350.08,348.30,16.53,0000 0000 0000 0000 000000
2014-12-31 12:21:52,0.18,3.17,0.00,23.73,27.80,30.38,4.78,27.36,1020.55,2027.99,2301.43,2505.58,2729.89,349.77,348.04,16.56,0000 0000 0000 0000 000000
2014-12-31 12:26:54,0.18,3.18,0.00,23.74,27.80,30.38,4.79,27.59,1020.62,2027.99,2299.98,2504.53,2728.70,350.04,348.21,16.59,0000 0000 0000 0000 000000
2014-12-31 12:31:55,0.19,3.18,0.00,23.73,27.80,30.40,4.78,27.54,1020.66,2027.99,2298.58,2503.37,2727.52,349.70,347.75,16.62,0000 0000 0000 0000 000000
2014-12-31 12:36:56,0.17,3.19,0.00,23.73,27.80,30.39,4.80,27.59,1020.61,2027.99,2297.17,2502.23,2726.34,349.94,348.01,16.65,0000 0000 0000 0000 000000
2014-12-31 12:41:58,0.19,3.19,0.00,23.70,27.80,30.40,4.82,27.73,1020.54,2027.96,2295.68,2500.98,2725.00,350.30,348.66,16.68,0000 0000 0000 0000 000000
2014-12-31 12:46:59,0.18,3.20,0.00,23.72,27.80,30.40,4.88,27.62,1020.56,2027.98,2294.33,2499.89,2723.76,351.01,349.07,16.71,0000 0000 0000 0000 000000
2014-12-31 12:52:01,0.20,3.20,0.00,23.73,27.80,30.40,4.79,27.55,1020.65,2027.97,2292.86,2498.73,2722.55,349.95,348.11,16.74,0000 0000 0000 0000 000000
2014-12-31 12:57:02,0.18,3.21,0.00,23.73,27.80,30.37,4.78,27.35,1020.88,2027.95,2291.50,2497.56,2721.32,349.97,348.25,16.77,0000 0000 0000 0000 000000
2014-12-31 13:02:03,0.18,3.22,0.00,23.74,27.80,30.40,4.87,27.48,1020.99,2027.96,2290.04,2496.46,2720.10,350.43,348.34,16.80,0000 0000 0000 0000 000000